Weather History for KIJX - January, 2013

Change the Weather History Date:

Thursday, January 24, 2013

  Actual Average (KSPI) Record (KSPI)
Temperature  
Mean Temperature 20 °F 27 °F  
Max Temperature 27 °F 35 °F 71 °F (1950)
Min Temperature 13 °F 19 °F -13 °F (1894)
Degree Days  
Heating Degree Days 45 38  
Month to date heating degree days 919  
Since 1 July heating degree days 3059  
Cooling Degree Days 0 0  
Month to date cooling degree days 0  
Year to date cooling degree days 0  
Moisture  
Dew Point 7 °F    
Average Humidity 56    
Maximum Humidity 71    
Minimum Humidity 44    
Precipitation  
Precipitation 0.00 in 0.05 in 0.74 in (1928)
Month to date precipitation 1.44  
Year to date precipitation 1.44  
Snow  
Snow 0.00 in 0.20 in 5.50 in (1894)
Month to date snowfall 4.9  
Since 1 July snowfall 11.1  
Snow Depth -    
Sea Level Pressure  
Sea Level Pressure 30.48 in    
Wind  
Wind Speed 12 mph (ENE)    
Max Wind Speed 17 mph    
Max Gust Speed 24 mph    
Visibility 10 miles    
Events      
T = Trace of Precipitation, MM = Missing Value Source: NWS Daily Summary

Daily Weather History Graph

Daily Weather History Graph

Search for Another Location

Airport or City:

Trip Planner

Search our weather history database for the weather conditions in past years. The results will help you decide how hot, cold, wet, or windy it might be!

Date:

Astronomy

Jan. 24, 2013 Rise Set
Actual Time 7:15 AM CST 5:11 PM CST
Civil Twilight 6:46 AM CST 5:40 PM CST
Nautical Twilight 6:13 AM CST 6:13 PM CST
Astronomical Twilight 5:41 AM CST 6:45 PM CST
Moon 3:13 PM CST (1/24) 5:12 AM CST (1/24)
Length of Visible Light 10h 54m
Length of Day
9h 56m
Waxing Gibbous, 94% of the Moon is Illuminated
Jan 24
Waxing Gibbous
Jan 26
Full
Feb 3
Last Quarter
Feb 10
New
Feb 17
First Quarter

Hourly Weather History & Observations

Time (CST) Temp. Windchill Dew Point Humidity Pressure Visibility Wind Dir Wind Speed Gust Speed Precip Events Conditions
12:15 AM 21.0 °F 6.6 °F 8.4 °F 58% 30.40 in 10.0 mi NNW 17.3 mph 24.2 mph N/A   Clear
12:35 AM 19.8 °F 5.4 °F 7.5 °F 59% 30.41 in 10.0 mi NNW 16.1 mph - N/A   Clear
12:55 AM 18.9 °F 4.3 °F 7.3 °F 61% 30.43 in 10.0 mi NNW 16.1 mph - N/A   Clear
1:15 AM 18.1 °F 2.9 °F 7.2 °F 62% 30.44 in 10.0 mi NNW 17.3 mph - N/A   Clear
1:35 AM 17.6 °F 4.3 °F 6.8 °F 63% 30.45 in 10.0 mi NNW 12.7 mph 20.7 mph N/A   Clear
1:55 AM 17.4 °F 5.4 °F 7.0 °F 64% 30.46 in 10.0 mi NNW 10.4 mph - N/A   Clear
2:15 AM 16.9 °F 2.8 °F 7.2 °F 66% 30.48 in 10.0 mi North 13.8 mph - N/A   Clear
2:35 AM 16.7 °F 4.5 °F 7.2 °F 66% 30.48 in 10.0 mi North 10.4 mph - N/A   Clear
2:55 AM 16.3 °F 3.4 °F 7.3 °F 68% 30.48 in 10.0 mi North 11.5 mph - N/A   Clear
3:15 AM 16.2 °F 4.7 °F 7.5 °F 69% 30.49 in 10.0 mi North 9.2 mph 18.4 mph N/A   Clear
3:35 AM 15.8 °F 4.2 °F 7.7 °F 70% 30.50 in 10.0 mi North 9.2 mph - N/A   Clear
3:55 AM 15.6 °F 4.0 °F 7.7 °F 71% 30.51 in 10.0 mi North 9.2 mph - N/A   Clear
4:15 AM 15.4 °F 3.0 °F 7.7 °F 71% 30.51 in 10.0 mi North 10.4 mph - N/A   Scattered Clouds
4:35 AM 15.1 °F 3.3 °F 7.3 °F 71% 30.51 in 10.0 mi North 9.2 mph - N/A   Scattered Clouds
4:55 AM 14.9 °F 0.9 °F 2.8 °F 59% 30.53 in 10.0 mi NNE 12.7 mph - N/A   Clear
5:15 AM 14.5 °F 2.7 °F 2.5 °F 59% 30.54 in 10.0 mi NNE 9.2 mph - N/A   Clear
5:35 AM 14.2 °F 4.1 °F 2.7 °F 60% 30.54 in 10.0 mi North 6.9 mph - N/A   Clear
5:55 AM 14.0 °F 3.9 °F 4.1 °F 65% 30.56 in 10.0 mi North 6.9 mph - N/A   Clear
6:15 AM 14.0 °F 0.5 °F 3.2 °F 62% 30.56 in 10.0 mi NNE 11.5 mph - N/A   Clear
6:35 AM 14.0 °F 1.2 °F 3.0 °F 62% 30.56 in 10.0 mi NNE 10.4 mph - N/A   Clear
6:55 AM 13.6 °F 1.6 °F 3.0 °F 63% 30.57 in 10.0 mi NNE 9.2 mph - N/A   Clear
7:15 AM 13.1 °F -0.7 °F 2.7 °F 63% 30.58 in 10.0 mi NNE 11.5 mph - N/A   Clear
7:35 AM 13.5 °F 0.5 °F 2.8 °F 63% 30.58 in 10.0 mi NNE 10.4 mph - N/A   Clear
7:55 AM 13.5 °F 0.5 °F 3.2 °F 64% 30.58 in 10.0 mi NE 10.4 mph - N/A   Clear
8:15 AM 13.8 °F 2.7 °F 2.8 °F 62% 30.59 in 10.0 mi NE 8.1 mph - N/A   Clear
8:35 AM 14.0 °F 1.2 °F 2.5 °F 60% 30.60 in 10.0 mi NE 10.4 mph - N/A   Clear
8:55 AM 14.0 °F 0.5 °F 3.2 °F 62% 30.61 in 10.0 mi NNE 11.5 mph - N/A   Clear
9:15 AM 14.7 °F 2.9 °F 2.7 °F 59% 30.63 in 10.0 mi NNE 9.2 mph - N/A   Clear
9:35 AM 14.9 °F 3.1 °F 2.8 °F 59% 30.63 in 10.0 mi NNE 9.2 mph - N/A   Clear
9:55 AM 15.6 °F 4.9 °F 2.8 °F 57% 30.63 in 10.0 mi ENE 8.1 mph - N/A   Clear
10:15 AM 16.7 °F 8.3 °F 2.3 °F 53% 30.64 in 10.0 mi ENE 5.8 mph - N/A   Clear
10:35 AM 18.0 °F 7.7 °F 2.7 °F 51% 30.62 in 10.0 mi ENE 8.1 mph - N/A   Clear
10:55 AM 18.5 °F 8.4 °F 1.4 °F 47% 30.62 in 10.0 mi ENE 8.1 mph - N/A   Clear
11:15 AM 19.4 °F 10.4 °F 2.3 °F 48% 30.62 in 10.0 mi East 6.9 mph - N/A   Clear
11:35 AM 20.7 °F 10.2 °F 2.5 °F 45% 30.60 in 10.0 mi East 9.2 mph - N/A   Clear
11:55 AM 20.8 °F 13.2 °F 3.0 °F 46% 30.59 in 10.0 mi East 5.8 mph - N/A   Clear
12:15 PM 21.4 °F 9.7 °F 3.6 °F 46% 30.57 in 10.0 mi East 11.5 mph - N/A   Clear
12:35 PM 21.4 °F 11.1 °F 3.9 °F 47% 30.57 in 10.0 mi East 9.2 mph - N/A   Clear
12:55 PM 23.0 °F 12.4 °F 5.2 °F 47% 30.54 in 10.0 mi ESE 10.4 mph - N/A   Clear
1:15 PM 24.8 °F 13.4 °F 6.8 °F 46% 30.53 in 10.0 mi ESE 12.7 mph 18.4 mph N/A   Clear
1:35 PM 24.6 °F 13.8 °F 6.8 °F 47% 30.50 in 10.0 mi East 11.5 mph - N/A   Clear
1:55 PM 25.5 °F 12.9 °F 7.5 °F 47% 30.49 in 10.0 mi East 16.1 mph - N/A   Clear
2:15 PM 26.6 °F 16.2 °F 7.2 °F 44% 30.50 in 10.0 mi East 11.5 mph 20.7 mph N/A   Clear
2:35 PM 26.6 °F 15.2 °F 7.7 °F 45% 30.48 in 10.0 mi ESE 13.8 mph - N/A   Clear
2:55 PM 26.8 °F 15.4 °F 8.1 °F 45% 30.48 in 10.0 mi ESE 13.8 mph 18.4 mph N/A   Clear
3:15 PM 27.7 °F 16.6 °F 9.0 °F 45% 30.47 in 10.0 mi ESE 13.8 mph - N/A   Clear
3:35 PM 27.3 °F 17.1 °F 8.6 °F 45% 30.46 in 10.0 mi ESE 11.5 mph - N/A   Clear
3:55 PM 27.0 °F 16.7 °F 9.1 °F 47% 30.46 in 10.0 mi ESE 11.5 mph - N/A   Clear
5:15 PM 26.1 °F 16.2 °F 10.4 °F 52% 30.42 in 10.0 mi ESE 10.4 mph - N/A   Clear
5:35 PM 26.1 °F 15.6 °F 10.4 °F 52% 30.41 in 10.0 mi ESE 11.5 mph - N/A   Clear
5:55 PM 26.1 °F 15.0 °F 10.4 °F 52% 30.40 in 10.0 mi ESE 12.7 mph - N/A   Clear
6:15 PM 25.7 °F 15.1 °F 10.9 °F 54% 30.41 in 10.0 mi ESE 11.5 mph - N/A   Clear
6:35 PM 25.7 °F 14.6 °F 11.3 °F 55% 30.40 in 10.0 mi ESE 12.7 mph 16.1 mph N/A   Clear
6:55 PM 25.7 °F 15.7 °F 11.3 °F 55% 30.40 in 10.0 mi ESE 10.4 mph - N/A   Clear
7:15 PM 25.9 °F 16.0 °F 11.3 °F 54% 30.40 in 10.0 mi ESE 10.4 mph - N/A   Clear
7:35 PM 25.9 °F 16.6 °F 11.8 °F 55% 30.40 in 10.0 mi ESE 9.2 mph - N/A   Clear
7:55 PM 25.7 °F 15.7 °F 11.8 °F 56% 30.38 in 10.0 mi SE 10.4 mph - N/A   Clear
8:15 PM 26.2 °F 15.2 °F 10.6 °F 52% 30.38 in 10.0 mi SE 12.7 mph 17.3 mph N/A   Clear
8:35 PM 26.4 °F 15.5 °F 10.0 °F 50% 30.35 in 10.0 mi ESE 12.7 mph - N/A   Clear
8:55 PM 26.2 °F 15.2 °F 10.0 °F 50% 30.32 in 10.0 mi ESE 12.7 mph 18.4 mph N/A   Clear
9:15 PM 26.2 °F 14.7 °F 10.4 °F 51% 30.32 in 10.0 mi ESE 13.8 mph 18.4 mph N/A   Clear
9:35 PM 26.2 °F 14.2 °F 10.6 °F 52% 30.28 in 10.0 mi SE 15.0 mph 21.9 mph N/A   Clear
9:55 PM 26.4 °F 16.0 °F 10.8 °F 52% 30.30 in 10.0 mi SE 11.5 mph 19.6 mph N/A   Mostly Cloudy
10:15 PM 26.6 °F 18.2 °F 10.8 °F 51% 30.33 in 10.0 mi ESE 8.1 mph - N/A   Overcast
10:35 PM 27.0 °F 18.7 °F 11.1 °F 51% 30.35 in 10.0 mi East 8.1 mph - N/A   Overcast
10:55 PM 27.0 °F 19.5 °F 11.7 °F 53% 30.34 in 10.0 mi ESE 6.9 mph - N/A   Overcast
11:15 PM 27.0 °F 16.7 °F 12.0 °F 53% 30.33 in 10.0 mi ESE 11.5 mph - N/A   Overcast
11:35 PM 26.8 °F 15.9 °F 11.8 °F 53% 30.30 in 10.0 mi ESE 12.7 mph 16.1 mph N/A   Overcast
11:55 PM 26.8 °F 16.5 °F 11.5 °F 53% 30.28 in 10.0 mi SE 11.5 mph - N/A   Overcast